CW8630 Weather Reports


time (UTC)temp
F
wind
direction
speed
knots
gust
knots
rain 1hr
in
rain 24hr
in
rain mn
in
humidity
%
barometer
mb
20210920063938 69 120 1.7 6.1 0.00 0.00 0.00 80 1015.3
20210920063434 70 87 2.6 5.2 0.00 0.00 0.00 80 1015.4
20210920062927 70 157 2.6 5.2 0.00 0.00 0.00 80 1015.5
20210920062420 69 123 2.6 5.2 0.00 0.00 0.00 80 1015.6
20210920061913 69 80 1.7 5.2 0.00 0.00 0.00 79 1015.6
20210920061409 69 129 1.7 5.2 0.00 0.00 0.00 79 1015.6
20210920060902 69 94 1.7 5.2 0.00 0.00 0.00 79 1015.6
20210920060357 69 116 1.7 4.3 0.00 0.00 0.00 79 1015.6
20210920055850 69 149 1.7 4.3 0.00 0.00 0.00 78 1015.6
20210920055345 69 92 1.7 4.3 0.00 0.00 0.00 78 1015.7
20210920054839 69 111 1.7 4.3 0.00 0.00 0.00 78 1015.7
20210920054333 69 113 1.7 4.3 0.00 0.00 0.00 78 1015.7
20210920053826 69 183 0.9 3.5 0.00 0.00 0.00 78 1015.6
20210920053319 69 106 0.9 3.5 0.00 0.00 0.00 78 1015.7
20210920052815 69 122 1.7 2.6 0.00 0.00 0.00 77 1015.6
20210920052310 69 149 1.7 3.5 0.00 0.00 0.00 77 1015.6
20210920051802 69 149 1.7 3.5 0.00 0.00 0.00 76 1015.6
20210920051256 70 172 0.9 3.5 0.00 0.00 0.00 76 1015.7
20210920050751 70 78 0.9 2.6 0.00 0.00 0.00 75 1015.7
20210920050245 71 122 0.9 2.6 0.00 0.00 0.00 74 1015.6
20210920045739 71 138 0.9 2.6 0.00 0.00 0.00 74 1015.7
20210920045232 71 113 0.9 2.6 0.00 0.00 0.00 74 1015.7
20210920044727 71 122 1.7 2.6 0.00 0.00 0.00 74 1015.7
20210920044220 71 116 1.7 2.6 0.00 0.00 0.00 74 1015.7
20210920043715 71 106 1.7 2.6 0.00 0.00 0.00 74 1015.8
20210920043207 71 149 0.9 3.5 0.00 0.00 0.00 73 1015.7
20210920042703 71 149 1.7 3.5 0.00 0.00 0.00 73 1015.7
20210920042157 71 116 0.9 2.6 0.00 0.00 0.00 73 1015.8
20210920041651 71 106 0.9 1.7 0.00 0.00 0.00 72 1015.8
20210920041146 72 149 0.9 2.6 0.00 0.00 0.00 72 1015.8
20210920040640 72 123 0.9 2.6 0.00 0.00 0.00 72 1015.9
20210920040133 72 122 0.9 2.6 0.00 0.00 0.00 71 1015.8
20210920035626 72 149 1.7 2.6 0.00 0.00 0.00 71 1015.9
20210920035120 72 111 1.7 3.5 0.00 0.00 0.00 70 1015.9
20210920034614 73 127 1.7 4.3 0.00 0.00 0.00 70 1015.9
20210920034110 73 127 1.7 4.3 0.00 0.00 0.00 70 1015.9
20210920033602 73 110 1.7 3.5 0.00 0.00 0.00 69 1015.9
20210920033058 73 111 1.7 3.5 0.00 0.00 0.00 69 1015.9
20210920032551 73 110 1.7 3.5 0.00 0.00 0.00 69 1015.9
20210920032045 73 120 1.7 3.5 0.00 0.00 0.00 69 1015.9
20210920031539 73 164 1.7 3.5 0.00 0.00 0.00 69 1015.8
20210920031032 73 106 1.7 2.6 0.00 0.00 0.00 69 1015.8
20210920030526 73 101 1.7 3.5 0.00 0.00 0.00 69 1015.8
20210920030022 73 110 1.7 4.3 0.00 0.00 0.00 69 1015.8
20210920025518 73 116 1.7 4.3 0.00 0.00 0.00 69 1015.7
20210920025008 73 92 1.7 2.6 0.00 0.00 0.00 70 1015.7
20210920024502 73 92 1.7 2.6 0.00 0.00 0.00 69 1015.7
20210920023956 74 87 0.9 2.6 0.00 0.00 0.00 69 1015.7
20210920023450 74 123 0.9 2.6 0.00 0.00 0.00 69 1015.7
20210920022944 74 131 0.9 2.6 0.00 0.00 0.00 67 1015.7
20210920022439 74 135 0.9 2.6 0.00 0.00 0.00 66 1015.7
20210920021932 75 239 0.9 2.6 0.00 0.00 0.00 65 1015.7
20210920021428 75 106 0.9 1.7 0.00 0.00 0.00 65 1015.8
20210920020921 76 118 1.7 3.5 0.00 0.00 0.00 64 1015.7
20210920020414 76 97 1.7 3.5 0.00 0.00 0.00 64 1015.7
20210920015907 76 106 1.7 3.5 0.00 0.00 0.00 64 1015.7
20210920015403 76 189 1.7 3.5 0.00 0.00 0.00 63 1015.7
20210920014857 76 99 1.7 4.3 0.00 0.00 0.00 63 1015.7
20210920014351 76 123 1.7 4.3 0.00 0.00 0.00 62 1015.7
20210920013845 77 211 1.7 3.5 0.00 0.00 0.00 62 1015.7
20210920013338 77 106 1.7 3.5 0.00 0.00 0.00 62 1015.7
20210920012831 77 149 1.7 3.5 0.00 0.00 0.00 61 1015.6
20210920012327 77 122 1.7 4.3 0.00 0.00 0.00 61 1015.7
20210920011821 77 125 0.9 4.3 0.00 0.00 0.00 62 1015.6
20210920011313 77 126 0.9 2.6 0.00 0.00 0.00 62 1015.5
20210920010809 77 149 0.9 2.6 0.00 0.00 0.00 61 1015.5
20210920010303 78 172 0.9 2.6 0.00 0.00 0.00 61 1015.4
20210920005755 78 149 0.9 2.6 0.00 0.00 0.00 60 1015.4
20210920005251 78 87 0.9 2.6 0.00 0.00 0.00 59 1015.4
20210920004746 79 123 1.7 3.5 0.00 0.00 0.00 58 1015.3
20210920004239 79 118 1.7 3.5 0.00 0.00 0.00 58 1015.3
20210920003732 80 127 1.7 2.6 0.00 0.00 0.00 57 1015.2
20210920003226 80 127 1.7 3.5 0.00 0.00 0.00 56 1015.1
20210920002720 80 123 1.7 3.5 0.00 0.00 0.00 56 1015.1
20210920002213 81 129 1.7 3.5 0.00 0.00 0.00 55 1015.1
20210920001707 81 141 1.7 3.5 0.00 0.00 0.00 55 1015.1
20210920001206 82 126 2.6 3.5 0.00 0.00 0.00 54 1015.0
20210920000708 82 111 2.6 5.2 0.00 0.00 0.00 53 1015.1
20210920000206 82 113 2.6 5.2 0.00 0.00 0.00 52 1015.0
20210919235706 83 127 2.6 4.3 0.00 0.00 0.00 52 1015.1
20210919235206 83 146 2.6 4.3 0.00 0.00 0.00 51 1015.0
20210919234705 84 92 2.6 5.2 0.00 0.00 0.00 50 1015.0
20210919234206 84 111 2.6 7.0 0.00 0.00 0.00 49 1015.0
20210919233706 84 113 3.5 7.0 0.00 0.00 0.00 49 1015.0
20210919233205 85 92 3.5 8.7 0.00 0.00 0.00 48 1015.0
20210919232706 85 92 3.5 8.7 0.00 0.00 0.00 48 1015.0
20210919232208 85 108 4.3 7.8 0.00 0.00 0.00 48 1015.0
20210919231709 85 125 4.3 7.8 0.00 0.00 0.00 47 1015.0
20210919231208 86 135 4.3 7.8 0.00 0.00 0.00 47 1015.0
20210919230702 86 96 4.3 7.8 0.00 0.00 0.00 46 1015.1
20210919230205 86 111 4.3 8.7 0.00 0.00 0.00 46 1015.1
20210919225703 86 106 4.3 8.7 0.00 0.00 0.00 46 1015.1
20210919225201 86 116 4.3 8.7 0.00 0.00 0.00 45 1015.1
20210919224702 86 106 4.3 10.4 0.00 0.00 0.00 45 1015.2
20210919224203 87 126 5.2 10.4 0.00 0.00 0.00 45 1015.2
20210919223703 87 154 4.3 8.7 0.00 0.00 0.00 46 1015.2
20210919223205 87 67 3.5 8.7 0.00 0.00 0.00 47 1015.3
20210919222704 87 99 4.3 8.7 0.00 0.00 0.00 47 1015.2
20210919222157 87 135 5.2 9.6 0.00 0.00 0.00 45 1015.3
20210919221659 88 52 5.2 9.6 0.00 0.00 0.00 45 1015.3
20210919221158 88 103 4.3 9.6 0.00 0.00 0.00 45 1015.2
20210919220657 88 106 4.3 9.6 0.00 0.00 0.00 44 1015.3
20210919220157 88 133 5.2 9.6 0.00 0.00 0.00 45 1015.3
20210919215657 88 104 4.3 9.6 0.00 0.00 0.00 45 1015.3
20210919215158 87 116 4.3 7.0 0.00 0.00 0.00 46 1015.4
20210919214657 87 109 5.2 11.3 0.00 0.00 0.00 45 1015.4
20210919214159 87 167 5.2 12.2 0.00 0.00 0.00 45 1015.4
20210919213654 88 130 5.2 10.4 0.00 0.00 0.00 44 1015.4
20210919213153 89 80 5.2 10.4 0.00 0.00 0.00 43 1015.4
20210919212655 89 113 5.2 10.4 0.00 0.00 0.00 43 1015.5
20210919212155 89 140 5.2 10.4 0.00 0.00 0.00 42 1015.4
20210919211651 89 128 4.3 9.6 0.00 0.00 0.00 43 1015.5
20210919211152 89 110 4.3 7.0 0.00 0.00 0.00 43 1015.6
20210919210652 88 118 4.3 9.6 0.00 0.00 0.00 42 1015.6
20210919210151 88 161 4.3 9.6 0.00 0.00 0.00 44 1015.6
20210919205651 88 146 4.3 9.6 0.00 0.00 0.00 42 1015.6
20210919205151 88 164 3.5 9.6 0.00 0.00 0.00 43 1015.6
20210919204651 88 118 4.3 9.6 0.00 0.00 0.00 43 1015.7
20210919204152 89 78 4.3 10.4 0.00 0.00 0.00 42 1015.8
20210919203649 89 118 4.3 10.4 0.00 0.00 0.00 42 1015.9
20210919203150 89 193 3.5 9.6 0.00 0.00 0.00 41 1015.9
20210919202651 88 181 5.2 11.3 0.00 0.00 0.00 43 1016.1
20210919202149 88 196 5.2 11.3 0.00 0.00 0.00 42 1016.2
20210919201643 88 217 5.2 12.2 0.00 0.00 0.00 42 1016.2
20210919201138 89 213 5.2 12.2 0.00 0.00 0.00 41 1016.2
20210919200633 89 186 4.3 11.3 0.00 0.00 0.00 42 1016.3
20210919200126 88 73 4.3 8.7 0.00 0.00 0.00 43 1016.4
20210919195620 89 99 3.5 10.4 0.00 0.00 0.00 43 1016.4
20210919195114 87 193 3.5 10.4 0.00 0.00 0.00 46 1016.5
20210919194608 87 113 3.5 8.7 0.00 0.00 0.00 45 1016.6
20210919194101 88 165 3.5 8.7 0.00 0.00 0.00 44 1016.7
20210919193554 88 135 5.2 12.2 0.00 0.00 0.00 45 1016.8
20210919193048 88 101 5.2 12.2 0.00 0.00 0.00 44 1016.8
20210919192544 88 87 5.2 12.2 0.00 0.00 0.00 45 1016.9
20210919192038 88 196 5.2 12.2 0.00 0.00 0.00 44 1016.9
20210919191533 88 87 5.2 9.6 0.00 0.00 0.00 45 1017.0
20210919191025 87 89 5.2 12.2 0.00 0.00 0.00 45 1017.0
20210919190520 87 188 5.2 12.2 0.00 0.00 0.00 46 1017.2
20210919190013 87 174 6.1 13.9 0.00 0.00 0.00 47 1017.3
20210919185508 88 182 5.2 13.9 0.00 0.00 0.00 46 1017.4
20210919185001 87 106 4.3 7.8 0.00 0.00 0.00 48 1017.4
20210919184455 87 116 5.2 13.9 0.00 0.00 0.00 49 1017.5
20210919183950 87 189 4.3 13.9 0.00 0.00 0.00 48 1017.7
20210919183445 87 110 3.5 9.6 0.00 0.00 0.00 48 1017.7
20210919182939 85 232 3.5 7.0 0.00 0.00 0.00 51 1017.7
20210919182432 85 186 3.5 8.7 0.00 0.00 0.00 51 1017.8
20210919181926 85 135 4.3 8.7 0.00 0.00 0.00 51 1017.9
20210919181419 86 80 3.5 7.8 0.00 0.00 0.00 51 1018.0
20210919180914 84 273 2.6 7.8 0.00 0.00 0.00 53 1018.1
20210919180408 85 331 3.5 8.7 0.00 0.00 0.00 51 1018.1
20210919175900 86 196 3.5 9.6 0.00 0.00 0.00 50 1018.2
20210919175356 86 80 3.5 10.4 0.00 0.00 0.00 52 1018.3
20210919174849 85 106 3.5 10.4 0.00 0.00 0.00 52 1018.3
20210919174344 86 134 4.3 10.4 0.00 0.00 0.00 50 1018.4
20210919173837 86 249 4.3 9.6 0.00 0.00 0.00 50 1018.4
20210919173330 85 125 4.3 13.0 0.00 0.00 0.00 54 1018.5
20210919172824 85 116 4.3 13.0 0.00 0.00 0.00 53 1018.5
20210919172321 85 120 5.2 12.2 0.00 0.00 0.00 53 1018.7
20210919171814 85 157 5.2 12.2 0.00 0.00 0.00 53 1018.9
20210919171308 84 211 4.3 12.2 0.00 0.00 0.00 56 1018.9
20210919170801 84 163 3.5 12.2 0.00 0.00 0.00 56 1019.0
20210919170257 83 108 3.5 6.1 0.00 0.00 0.00 57 1019.1
20210919165750 83 111 3.5 7.0 0.00 0.00 0.00 59 1019.1
20210919165243 83 78 2.6 7.0 0.00 0.00 0.00 58 1019.2
20210919164736 82 149 1.7 4.3 0.00 0.00 0.00 59 1019.2
20210919164232 82 87 2.6 6.1 0.00 0.00 0.00 61 1019.3
20210919163726 82 84 3.5 6.1 0.00 0.00 0.00 60 1019.5
20210919163220 82 92 2.6 6.1 0.00 0.00 0.00 62 1019.5
20210919162718 82 99 2.6 6.1 0.00 0.00 0.00 60 1019.6
20210919162216 81 92 2.6 5.2 0.00 0.00 0.00 61 1019.6
20210919161717 81 80 2.6 5.2 0.00 0.00 0.00 62 1019.7
20210919161217 80 141 2.6 5.2 0.00 0.00 0.00 63 1019.7
20210919160716 80 87 2.6 6.1 0.00 0.00 0.00 64 1019.7
20210919160217 80 66 1.7 6.1 0.00 0.00 0.00 63 1019.8
20210919155717 80 135 1.7 6.1 0.00 0.00 0.00 66 1019.8
20210919155217 79 131 2.6 6.1 0.00 0.00 0.00 66 1019.8
20210919154719 79 127 2.6 4.3 0.00 0.00 0.00 65 1019.9
20210919154217 78 164 2.6 4.3 0.00 0.00 0.00 66 1020.0
20210919153716 78 109 2.6 5.2 0.00 0.00 0.00 66 1020.0
20210919153217 77 116 2.6 5.2 0.00 0.00 0.00 68 1020.1
20210919152717 77 133 2.6 5.2 0.00 0.00 0.00 69 1020.1
20210919152219 77 97 2.6 6.1 0.00 0.00 0.00 69 1020.1
20210919151718 76 108 2.6 6.1 0.00 0.00 0.00 70 1020.1
20210919151216 76 168 2.6 4.3 0.00 0.00 0.00 70 1020.1
20210919150718 76 123 2.6 6.1 0.00 0.00 0.00 71 1020.1
20210919150212 75 207 3.5 6.1 0.00 0.00 0.00 71 1020.1
20210919145711 75 175 2.6 6.1 0.00 0.00 0.00 71 1020.1
20210919145211 75 96 2.6 6.1 0.00 0.00 0.00 73 1020.1
20210919144711 74 89 2.6 5.2 0.00 0.00 0.00 74 1020.1
20210919144210 74 106 2.6 7.0 0.00 0.00 0.00 75 1020.1
20210919143706 74 130 3.5 7.0 0.00 0.00 0.00 75 1020.2
20210919143204 73 118 3.5 6.1 0.00 0.00 0.00 76 1020.3
20210919142705 73 106 3.5 6.1 0.00 0.00 0.00 76 1020.2
20210919142206 72 113 2.6 5.2 0.00 0.00 0.00 77 1020.2
20210919141705 72 149 3.5 7.0 0.00 0.00 0.00 76 1020.2
20210919141205 71 149 3.5 7.0 0.00 0.00 0.00 79 1020.2
20210919140705 71 77 3.5 7.0 0.00 0.00 0.00 78 1020.2
20210919140204 71 171 2.6 7.0 0.00 0.00 0.00 80 1020.3
20210919135705 71 126 3.5 5.2 0.00 0.00 0.00 80 1020.2
20210919135205 70 111 3.5 6.1 0.00 0.00 0.00 81 1020.3
20210919134705 69 101 3.5 6.1 0.00 0.00 0.00 82 1020.3
20210919134204 69 99 3.5 6.1 0.00 0.00 0.00 82 1020.3
20210919133703 69 122 3.5 6.1 0.00 0.00 0.00 82 1020.4
20210919133202 68 103 3.5 6.1 0.00 0.00 0.00 84 1020.4
20210919132658 68 135 2.6 6.1 0.00 0.00 0.00 85 1020.4
20210919132152 67 140 2.6 4.3 0.00 0.00 0.00 86 1020.5
20210919131645 66 120 2.6 4.3 0.00 0.00 0.00 87 1020.4
20210919131139 66 109 2.6 4.3 0.00 0.00 0.00 88 1020.4
20210919130634 65 116 2.6 4.3 0.00 0.00 0.00 88 1020.4
20210919130128 65 139 1.7 4.3 0.00 0.00 0.00 90 1020.4
20210919125629 64 120 1.7 3.5 0.00 0.00 0.00 90 1020.4
20210919125129 64 106 1.7 2.6 0.00 0.00 0.00 91 1020.4
20210919124628 63 113 1.7 2.6 0.00 0.00 0.00 92 1020.5
20210919124128 63 106 0.9 2.6 0.00 0.00 0.00 92 1020.4
20210919123628 62 118 0.9 2.6 0.00 0.00 0.00 93 1020.4
20210919123128 62 106 0.9 1.7 0.00 0.00 0.00 94 1020.4
20210919122628 62 94 0.9 2.6 0.00 0.00 0.00 95 1020.4
20210919122131 61 78 0.9 2.6 0.00 0.00 0.00 95 1020.4
20210919121629 61 92 0.9 1.7 0.00 0.00 0.00 96 1020.4
20210919121124 61 123 0.9 1.7 0.00 0.00 0.00 96 1020.4
20210919120625 60 99 0.9 1.7 0.00 0.00 0.00 96 1020.4
20210919120126 60 106 0.9 1.7 0.00 0.00 0.00 95 1020.4
20210919115624 60 106 0.9 1.7 0.00 0.00 0.00 95 1020.3
20210919115124 60 75 0.9 1.7 0.00 0.00 0.00 96 1020.3
20210919114625 60 106 0.9 1.7 0.00 0.00 0.00 95 1020.3
20210919114125 60 94 0.9 1.7 0.00 0.00 0.00 95 1020.2
20210919113626 60 106 0.9 1.7 0.00 0.00 0.00 96 1020.2
20210919113125 60 113 0.9 1.7 0.00 0.00 0.00 95 1020.2
20210919112626 60 106 0.9 1.7 0.00 0.00 0.00 95 1020.2
20210919112126 60 113 0.9 1.7 0.00 0.00 0.00 95 1020.1
20210919111624 60 106 0.9 1.7 0.00 0.00 0.00 95 1020.1
20210919111126 60 116 0.9 1.7 0.00 0.00 0.00 96 1020.2
20210919110626 60 123 0.9 1.7 0.00 0.00 0.00 95 1020.2
20210919110126 60 78 0.9 1.7 0.00 0.00 0.00 95 1020.1
20210919105624 60 75 0.9 1.7 0.00 0.00 0.00 95 1020.1
20210919105125 60 87 0.9 1.7 0.00 0.00 0.00 95 1020.1
20210919104622 60 87 0.9 1.7 0.00 0.00 0.00 94 1020.1
20210919104117 61 75 0.9 1.7 0.00 0.00 0.00 94 1020.0
20210919103610 61 16 0.9 1.7 0.00 0.00 0.00 94 1020.0
20210919103105 61 106 0.9 1.7 0.00 0.00 0.00 94 1020.0
20210919102558 61 94 0.9 1.7 0.00 0.00 0.00 94 1020.0
20210919102052 61 87 0.9 1.7 0.00 0.00 0.00 95 1020.0
20210919101546 61 106 0.9 1.7 0.00 0.00 0.00 95 1020.0
20210919101041 61 106 0.9 1.7 0.00 0.00 0.00 95 1020.0
20210919100534 60 97 0.9 1.7 0.00 0.00 0.00 95 1020.0
20210919100028 61 78 0.9 1.7 0.00 0.00 0.00 95 1019.9
20210919095526 60 60 0.9 0.9 0.00 0.00 0.00 95 1020.0
20210919095027 60 60 0.9 1.7 0.00 0.00 0.00 95 1020.0
20210919094524 60 60 0.9 1.7 0.00 0.00 0.00 94 1020.0
20210919094025 60 94 0.9 0.9 0.00 0.00 0.00 94 1020.0
20210919093524 60 78 0.9 0.9 0.00 0.00 0.00 93 1019.9
20210919093025 61 78 0.9 0.9 0.00 0.00 0.00 92 1019.9
20210919092525 61 87 0.9 1.7 0.00 0.00 0.00 92 1019.9
20210919092025 61 87 0.9 1.7 0.00 0.00 0.00 93 1019.9
20210919091525 61 106 0.9 1.7 0.00 0.00 0.00 93 1019.9
20210919091025 61 106 0.9 1.7 0.00 0.00 0.00 92 1020.0
20210919090524 61 75 0.9 1.7 0.00 0.00 0.00 92 1020.0
20210919090024 62 106 0.9 1.7 0.00 0.00 0.00 92 1020.0
20210919085524 62 87 0.9 1.7 0.00 0.00 0.00 91 1020.0
20210919085026 62 60 0.9 1.7 0.00 0.00 0.00 91 1020.0
20210919084524 62 75 0.9 1.7 0.00 0.00 0.00 91 1020.0
20210919084022 62 106 0.9 1.7 0.00 0.00 0.00 91 1020.0
20210919083521 62 78 0.9 1.7 0.00 0.00 0.00 91 1020.0
20210919083016 62 75 0.9 2.6 0.00 0.00 0.00 91 1020.1
20210919082510 62 78 0.9 2.6 0.00 0.00 0.00 91 1020.2
20210919082006 62 73 0.9 2.6 0.00 0.00 0.00 91 1020.1
20210919081458 62 75 0.9 2.6 0.00 0.00 0.00 91 1020.1
20210919080953 62 83 0.9 1.7 0.00 0.00 0.00 92 1020.2
20210919080448 61 77 0.9 1.7 0.00 0.00 0.00 92 1020.2
20210919075941 61 97 0.9 1.7 0.00 0.00 0.00 93 1020.2
20210919075433 60 60 0.9 1.7 0.00 0.00 0.00 92 1020.2
20210919074928 60 78 0.0 1.7 0.00 0.00 0.00 92 1020.2
20210919074424 60 87 0.0 0.9 0.00 0.00 0.00 92 1020.3
20210919073917 61 331 0.0 1.7 0.00 0.00 0.00 91 1020.3
20210919073411 61 16 0.9 1.7 0.00 0.00 0.00 90 1020.3
20210919072904 61 75 0.9 1.7 0.00 0.00 0.00 90 1020.3
20210919072358 61 94 0.9 1.7 0.00 0.00 0.00 90 1020.4
20210919071853 61 97 0.9 1.7 0.00 0.00 0.00 90 1020.4
20210919071346 61 110 0.9 1.7 0.00 0.00 0.00 90 1020.3
20210919070842 61 106 0.9 1.7 0.00 0.00 0.00 90 1020.4
20210919070334 61 106 0.9 1.7 0.00 0.00 0.00 89 1020.4
20210919065828 61 97 0.9 2.6 0.00 0.00 0.00 89 1020.4
20210919065322 61 94 0.9 2.6 0.00 0.00 0.00 89 1020.4
20210919064816 62 94 1.7 2.6 0.00 0.00 0.00 89 1020.4
20210919064310 62 87 1.7 2.6 0.00 0.00 0.00 89 1020.4